TimeEDT,TemperatureF,Dew PointF,Humidity,Sea Level PressureIn,VisibilityMPH,Wind Direction,Wind SpeedMPH,Gust SpeedMPH,PrecipitationIn,Events,Conditions,WindDirDegrees,DateUTC
12:53 AM,28.9,19.0,67,29.98,10.0,WNW,5.8,-,N/A,,Clear,300,2013-03-24 04:53:00
1:53 AM,30.0,18.0,61,29.96,10.0,WSW,4.6,-,N/A,,Clear,250,2013-03-24 05:53:00
2:53 AM,28.9,18.0,64,29.96,10.0,West,3.5,-,N/A,,Clear,280,2013-03-24 06:53:00
3:53 AM,26.1,18.0,71,29.97,10.0,West,3.5,-,N/A,,Clear,270,2013-03-24 07:53:00
4:53 AM,25.0,17.1,72,29.97,10.0,WNW,5.8,-,N/A,,Clear,290,2013-03-24 08:53:00
5:53 AM,27.0,18.0,69,29.99,10.0,WNW,4.6,-,N/A,,Clear,290,2013-03-24 09:53:00
6:53 AM,25.0,18.0,75,29.98,10.0,WNW,5.8,-,N/A,,Clear,290,2013-03-24 10:53:00
7:53 AM,26.1,19.0,75,29.99,10.0,West,5.8,-,N/A,,Clear,270,2013-03-24 11:53:00
8:53 AM,32.0,23.0,69,29.99,10.0,WNW,3.5,-,N/A,,Clear,290,2013-03-24 12:53:00
9:53 AM,37.9,19.0,47,29.95,10.0,NNE,6.9,-,N/A,,Clear,20,2013-03-24 13:53:00
10:53 AM,39.9,19.0,43,29.92,10.0,NNE,8.1,-,N/A,,Clear,20,2013-03-24 14:53:00
11:53 AM,41.0,19.9,43,29.88,10.0,ENE,3.5,-,N/A,,Clear,70,2013-03-24 15:53:00
12:53 PM,42.1,19.0,40,29.86,10.0,NE,5.8,-,N/A,,Clear,50,2013-03-24 16:53:00
1:53 PM,43.0,19.0,38,29.78,10.0,East,5.8,-,N/A,,Clear,90,2013-03-24 17:53:00
2:53 PM,44.1,19.9,38,29.75,10.0,NE,5.8,-,N/A,,Clear,40,2013-03-24 18:53:00
3:53 PM,44.1,18.0,35,29.73,10.0,ENE,4.6,-,N/A,,Clear,70,2013-03-24 19:53:00
4:53 PM,44.1,17.1,34,29.72,10.0,Calm,Calm,-,N/A,,Clear,0,2013-03-24 20:53:00
5:53 PM,43.0,19.9,40,29.70,10.0,SE,3.5,-,N/A,,Partly Cloudy,140,2013-03-24 21:53:00
6:53 PM,43.0,18.0,37,29.70,10.0,Calm,Calm,-,N/A,,Mostly Cloudy,0,2013-03-24 22:53:00
7:53 PM,42.1,19.9,41,29.72,10.0,Calm,Calm,-,N/A,,Overcast,0,2013-03-24 23:53:00
8:53 PM,39.0,24.1,55,29.72,10.0,East,3.5,-,N/A,,Overcast,100,2013-03-25 00:53:00
9:53 PM,39.0,24.1,55,29.71,10.0,East,3.5,-,N/A,,Overcast,90,2013-03-25 01:53:00
10:53 PM,39.0,23.0,53,29.67,10.0,ESE,8.1,-,N/A,,Overcast,120,2013-03-25 02:53:00
11:53 PM,37.0,25.0,62,29.69,10.0,ESE,3.5,-,N/A,,Overcast,120,2013-03-25 03:53:00